Regional Weather Roundup
Issued by NWS Little Rock, AR

Home | Current Version | Previous Version | Graphics & Text | Print | Product List | Glossary On
Versions: 1 2 3 4 5 6 7 8 9 10 11 12 13 14 15 16 17 18 19 20 21 22 23 24 25 26 27 28 29 30 31 32 33 34 35 36 37 38 39 40 41 42 43 44 45 46 47 48 49 50
000
ASUS44 KLZK 032305
RWRLZK

WEATHER ROUNDUP FOR ARKANSAS
NATIONAL WEATHER SERVICE LITTLE ROCK AR
500 PM CST SAT DEC 03 2016

NOTE: "FAIR" INDICATES FEW OR NO CLOUDS BELOW 12,000 FEET WITH NO
SIGNIFICANT WEATHER AND/OR OBSTRUCTIONS TO VISIBILITY.

ARZ001-003-010-029-040000-
NORTHWEST ARKANSAS

CITY           SKY/WX    TMP DP  RH WIND       PRES   REMARKS
FAYETTEVILLE   LGT RAIN  42  42 100 E5        30.13F FOG
FORT SMITH     LGT RAIN  45  42  89 E17       30.11F FOG
HARRISON       LGT RAIN  39  38  96 E10       30.18F FOG
BENTONVILLE    CLOUDY    43  36  75 E9        30.13F
ROGERS         LGT RAIN  41  39  93 E10       30.14F
SILOAM SPGS    CLOUDY    43  39  87 E5        30.12F
HIGHFILL       LGT RAIN  43  41  93 E10       30.12F FOG
$$

ARZ004-005-016-040000-
NORTH CENTRAL ARKANSAS

CITY           SKY/WX    TMP DP  RH WIND       PRES   REMARKS
BATESVILLE     CLOUDY    43  37  81 NE5       30.23S
FLIPPIN        CLOUDY    41  36  81 E5        30.19S
MTN HOME       LGT RAIN  39  38  96 E7        30.20F
$$

ARZ040-041-040000-
WEST CENTRAL ARKANSAS

CITY           SKY/WX    TMP DP  RH WIND       PRES   REMARKS
MENA           CLOUDY    46  45  93 E9        30.07F
MOUNT IDA      RAIN      46  44  93 VRB5      30.07F FOG
$$

ARZ009-017-025-026-028-040000-
NORTHEAST ARKANSAS

CITY           SKY/WX    TMP DP  RH WIND       PRES   REMARKS
CORNING        LGT RAIN  43  39  87 NE8       30.27S
JONESBORO      LGT RAIN  43  40  89 NE9       30.24S
NEWPORT        LGT RAIN  43  41  93 MISG        N/A
WALNUT RIDGE   CLOUDY    43  36  75 NE9       30.24F
BLYTHEVILLE    LGT RAIN  43  38  82 VRB3      30.26R
$$

ARZ022-023-033-042-044-040000-
CENTRAL ARKANSAS

CITY           SKY/WX    TMP DP  RH WIND       PRES   REMARKS
LITTLE ROCK    RAIN      44  44 100 NE12      30.17S FOG
JACKSONVILLE   LGT RAIN  44  44  99 NE8       30.17R
SEARCY         LGT RAIN  43  43 100 NE10      30.21S FOG
HOT SPRINGS    RAIN      46  45  96 E12       30.11F
RUSSELLVILLE   RAIN      44  42  93 E5        30.16F FOG
$$

ARZ036-040000-
EAST ARKANSAS

CITY           SKY/WX    TMP DP  RH WIND       PRES   REMARKS
WEST MEMPHIS   LGT RAIN  44  41  89 E8        30.21S
$$

ARZ050-053-066-070-073-040000-
SOUTHWEST ARKANSAS

CITY           SKY/WX    TMP DP  RH WIND       PRES   REMARKS
ARKADELPHIA    LGT RAIN  46  45  96 NE7       30.11F
CAMDEN         HVY RAIN  46  43  87 E8        30.08F
TEXARKANA      LGT RAIN  46  46 100 E8G18     30.03S FOG
EL DORADO      RAIN      46  45  96 E13       30.05F FOG
DE QUEEN       LGT RAIN  46  46 100 E7        30.06R
$$

ARZ056-057-069-040000-
SOUTHEAST ARKANSAS

CITY           SKY/WX    TMP DP  RH WIND       PRES   REMARKS
PINE BLUFF     RAIN      46  44  93 E12       30.15R
STUTTGART      CLOUDY    46  39  76 NE12      30.18R
MONTICELLO     RAIN      46  44  93 E12       30.10R

$$





USA.gov is the U.S. government's official web portal to all federal, state and local government web resources and services.